Regional Weather Roundup
Issued by NWS

Home | Current Version | Previous Version | Text Only | Print | Product List | Glossary On
Versions: 1 2 3 4 5 6 7 8 9 10 11 12 13 14 15 16 17 18 19 20 21 22 23 24 25 26 27 28
000
ASUS45 KTFX 221810
RWRMT
MONTANA REGIONAL WEATHER ROUNDUP
NATIONAL WEATHER SERVICE GREAT FALLS MT
1200 PM MDT FRI SEP 22 2017

NOTE: "FAIR" INDICATES FEW OR NO CLOUDS BELOW 12000 FEET WITH NO
SIGNIFICANT WEATHER AND/OR OBSTRUCTIONS TO VISIBILITY.

MTZ001>007-043-221900-
WEST OF THE DIVIDE

CITY           SKY/WX    TMP DP  RH WIND       PRES   REMARKS
KALISPELL      CLOUDY    48  30  49 NE12      30.03S
MISSOULA       LGT RAIN  41  37  86 E13       30.02R
BUTTE          LGT SNOW  33  32  96 W7        29.94S VSB 1   WCI  27
MULLAN PASS    LGT SNOW  33  31  92 CALM      29.98R FOG
ANACONDA         N/A     34  28  80 NW13G20   29.97R WCI  25
DEER LODGE       N/A     36  28  75 NW8       30.00F WCI  29
EUREKA           N/A     48  37  66 CALM      30.06S
HAMILTON         N/A     39  34  81 N14G22    29.99S WCI  31
LIBBY            N/A     45  39  81 CALM      30.05F
PLAINS           N/A     46  38  74 SW2       30.04
$$

MTZ008-052>055-221900-
SOUTHWEST MONTANA

CITY           SKY/WX    TMP DP  RH WIND       PRES   REMARKS
BOZEMAN        LGT RAIN  39  36  89 W16       29.93R WCI  30
DILLON         SNOW      33  31  92 N6        29.91S WCI  28
W YELLOWSTONE  CLOUDY    37  34  87 MISG      29.90S
ENNIS          FLURRIES  36  34  93 NW5       29.96R
THREE FORKS      N/A     39  35  85 N5        29.95R
TWIN BRIDGES     N/A     35  30  82 N12       29.92R WCI  27
$$

MTZ009-010-012-014-046-048-049-054-221900-
EAST SLOPES AND CENTRAL MONTANA

CITY           SKY/WX    TMP DP  RH WIND       PRES   REMARKS
CUT BANK       CLOUDY    38  31  76 N10       30.09S WCI  31
GREAT FALLS    CLOUDY    37  34  89 NE14      30.07S WCI  28
MALMSTROM AFB  LGT RAIN  37  36  93 NE14      30.08S WCI  29
HELENA         CLOUDY    39  33  79 N13       30.00F WCI  31
BOWMANS CRNR   LGT SNOW  31  31  99 N12       30.04S WCI  22
CHOTEAU          N/A     37  34  87 N15       30.09F WCI  28
FAIRFIELD      LGT RAIN  37  33  85 N10       30.07F WCI  29
POWER          DRIZZLE   36  34  92 N12       30.06F WCI  28
RAYNESFORD     LGT RAIN  35  34  97 CALM      30.05F
ULM            LGT RAIN  36  35  96 NE9       30.07S WCI  29
$$

MTZ011-013-016-021-045-047-050-051-221900-
NORTH CENTRAL MONTANA

CITY           SKY/WX    TMP DP  RH WIND       PRES   REMARKS
HAVRE          CLOUDY    43  34  70 NE5       30.11S
LEWISTOWN      CLOUDY    36  35  96 E6        30.03F WCI  31
N BAR RANCH    LGT SNOW  34  32  93 CALM      30.06F
CHINOOK          N/A     45  36  70 CALM      30.11S
DENTON           N/A     38  37  95 N7        30.03F
GEYSER         DRIZZLE   35  35  99 NE10      30.04F WCI  27
JUDITH GAP     CLOUDY    34  33  98 N14G26    29.99F WCI  24
WINIFRED       PTSUNNY   38  36  93 NE8       30.05F
$$

MTZ017>020-022>027-061-062-221900-
NORTHEAST MONTANA

CITY           SKY/WX    TMP DP  RH WIND       PRES   REMARKS
GLASGOW        CLOUDY    43  41  93 NW9       30.07R
JORDAN           N/A     42  39  89 N10       30.06R
SIDNEY         CLOUDY    47  39  74 N15       30.01S
WOLF POINT     LGT RAIN  45  39  79 N13       30.05R
MALTA          CLOUDY    45  37  76 CALM      30.09F
POPLAR           N/A     46  37  71 N7        30.04R
SCOBEY           N/A     41  36  82 NW9       30.02
$$

MTZ028>42-056>058-221900-
SOUTHCENTRAL AND SOUTHEAST MONTANA

CITY           SKY/WX    TMP DP  RH WIND       PRES   REMARKS
BAKER          CLOUDY    50  33  52 N21G29    29.96R
BILLINGS       CLOUDY    40  39  97 E17       30.00R
LIVINGSTON     CLOUDY    36  33  89 E17G24    29.96R WCI  26
MILES CITY     CLOUDY    48  35  60 N8        30.02R
BIG TIMBER     CLOUDY    34  34 100 NE9       30.02F FOG     WCI  26
EKALAKA          N/A     47  34  60 N12       29.91
HARLOWTON      LGT RAIN  32  32  98 MISG      30.02S VSB 1/4
LAUREL           N/A     41  39  93 NE17      30.00S
$$

REGIONAL REPORTS...DAKOTAS

CITY           SKY/WX    TMP DP  RH WIND       PRES   REMARKS
WILLISTON      LGT RAIN  49  41  74 N13       30.00S
MINOT          LGT RAIN  50  43  77 NW21G30   29.89F
DICKINSON      CLOUDY    47  39  74 N23G32    29.87F
BEACH          CLOUDY    48  36  61 N18G26    29.97F
CROSBY         CLOUDY    45  45 100 NW9       30.03R
TIOGA          CLOUDY    46  43  87 N9G16     29.99F
WATFORD CITY   CLOUDY    46  41  81 N13       29.97F
BISMARCK       CLOUDY    56  45  66 N13G26    29.79F
GRAND FORKS    CLOUDY    68  56  65 NE12      29.73F
FARGO          CLOUDY    81  68  64 NE5       29.67F
BUFFALO SD       N/A     53  36  52 N21G28    29.79F
RAPID CITY     MOSUNNY   59  39  47 NW31G40   29.83F
$$

REGIONAL REPORTS...WYOMING/IDAHO/WASHINGTON

CITY           SKY/WX    TMP DP  RH WIND       PRES   REMARKS
GILLETTE       CLOUDY    47  38  71 N9        29.94F
SHERIDAN       CLOUDY    44  41  89 N5        29.97F
BUFFALO WY     CLOUDY    44  36  73 N8        29.96F
CODY           CLOUDY    37  35  92 N12       29.97F WCI  29
IDAHO FALLS    LGT RAIN  42  38  85 SW15      29.93R
SALMON         CLOUDY    44  34  67 VRB3      29.92R
BOISE          CLOUDY    45  41  86 W10       29.95R
SPOKANE        MOSUNNY   50  40  68 VRB5      30.01S
$$

REGIONAL REPORTS...ALBERTA

CITY           SKY/WX    TMP DP  RH WIND       PRES   REMARKS
EDMONTON       CLOUDY    43  39  87 W2        30.11S
CALGARY        FLURRIES  37  32  81 CALM      30.11S
LETHBRIDGE     CLOUDY    41  37  87 N6        30.11F
MEDICINE HAT   CLOUDY    43  39  87 NW5       30.10F
$$

REGIONAL REPORTS...SASKATCHEWAN

CITY           SKY/WX    TMP DP  RH WIND       PRES   REMARKS
SWIFT CURRENT  CLOUDY    41  36  81 NW6       30.06S
REGINA         CLOUDY    46  41  81 NW9       30.03F
SASKATOON      LGT RAIN  45  41  87 NE5       30.09S
$$




USA.gov is the U.S. government's official web portal to all federal, state and local government web resources and services.